{"data":{"norad_id":65974,"intl_designator":"2025-230A","name":"SDA_1664","alt_names":[],"object_type":"PAYLOAD","status":"ACTIVE","operator":null,"country":"US","launch_date":"2025-10-15","launch_site_code":"AFWTR","launch_vehicle":null,"mission":null,"orbit_class":"UNKNOWN","rcs_meters":null,"size_class":null,"mass_kg":null,"dimensions":null,"purposes":[],"wikipedia_slug":null,"has_3d_model":false,"image_url":null,"decayed_at":null,"tle_current":{"epoch":"2026-09-20T13:52:59.032128Z","epoch_age_seconds":133682,"freshness":"FRESH","line1":"1 65974U 25230A   26263.57846102  .00000109  00000+0  96791-4 0  9990","line2":"2 65974  81.2980 124.7782 0001613  56.8121 303.3187 13.78096092 46916","mean_motion":13.78096092,"eccentricity":0.0001613,"inclination_deg":81.298,"raan_deg":124.7782,"arg_perigee_deg":56.8121,"mean_anomaly_deg":303.3187,"bstar":9.6791e-5,"rev_number":4691,"period_min":104.49198777642,"perigee_km":969.4620591583,"apogee_km":971.83277701158,"semimajor_km":7348.7844180849,"source":"CELESTRAK","updated_at":"2026-09-21T09:00:15.685419Z"}}}